Flag for France Weather past 2 weeks in Auxerre, France

Now
43 °F

Light rain. Fog.


Feels Like: 34 °F
Forecast: 40 / 45 °F
Wind: 22 mph from South

Location: Troyes Airport

Current Time: Jan 28, 2015 at 4:20:46 PM

Latest Report: Jan 28, 2015 at 4:00 PM


Visibility: 3 mi

Pressure: 29.80 "Hg

Humidity: 93%

Dew point: 41 °F

Location of AuxerreLocation

Historic Weather in Auxerre — Graph

°F

Auxerre temperature yesterday

Maximum temperature yesterday: 43 °F (at 12:00 AM)
Minimum temperature yesterday: 30 °F (at 8:30 AM)
Average temperature yesterday: 38 °F

Past Weeks' High & Low Weather Summary

 TemperatureHumidityPressure
High54 °F (Jan 13, 3:00 PM)100% (Jan 17, 10:30 PM)30.51 "Hg (Jan 17, 10:30 PM)
Low23 °F (Jan 19, 7:00 AM)57% (Jan 18, 3:30 PM)29.62 "Hg (Jan 15, 1:30 PM)
Average38 °F86%30.03 "Hg
* Reported Jan 13 3:00 PM — Jan 28 3:00 PM, Auxerre, Weather by CustomWeather, © 2014

Note: Actual official high and low records may vary slightly from our data, if they occured in-between our weather recording intervals... More about our weather records

Advertising

Auxerre weather history for previous 24 hours

 ConditionsComfort  
Time TempWeatherWind HumidityBarometerVisibility
3:00 PM
Jan 28
45 °FBroken clouds.24 mph81%29.83 "HgN/A
2:30 PM45 °FBroken clouds.24 mph81%29.86 "Hg6 mi
2:00 PM45 °FPartly sunny.22 mph81%29.89 "HgN/A
1:30 PM45 °FMostly cloudy.18 mph81%29.92 "HgN/A
1:00 PM45 °FOvercast.17 mph81%29.98 "HgN/A
12:30 PM45 °FMostly cloudy.15 mph81%29.98 "HgN/A
12:00 PM43 °FPartly sunny.16 mph87%30.01 "HgN/A
11:30 AM43 °FMore clouds than sun.15 mph87%30.04 "HgN/A
11:00 AM43 °FMostly cloudy.15 mph87%30.04 "HgN/A
10:30 AM41 °FMostly cloudy.12 mph93%30.07 "HgN/A
10:00 AM39 °FMore clouds than sun.10 mph93%30.07 "HgN/A
9:30 AM39 °FOvercast.12 mph93%30.07 "Hg6 mi
9:00 AM39 °FMostly cloudy.9 mph93%30.09 "Hg5 mi
8:30 AM39 °FBroken clouds.10 mph93%30.09 "Hg5 mi
8:00 AM39 °FPartly cloudy.10 mph93%30.12 "Hg4 mi
7:30 AM39 °FOvercast.10 mph93%30.12 "HgN/A
7:00 AM39 °FMostly cloudy.8 mph93%30.15 "HgN/A
6:30 AM39 °FMostly cloudy.9 mph93%30.12 "HgN/A
6:00 AM39 °FOvercast.9 mph93%30.15 "HgN/A
5:30 AM39 °FOvercast.12 mph93%30.15 "HgN/A
5:00 AM37 °FPassing clouds.6 mph93%30.15 "HgN/A
4:30 AM37 °FPartly cloudy.8 mph93%30.15 "HgN/A
4:00 AM37 °FPassing clouds.8 mph93%30.18 "HgN/A
3:30 AM37 °FPassing clouds.6 mph93%30.21 "HgN/A
3:00 AM39 °FPassing clouds.8 mph93%30.21 "HgN/A
2:30 AM41 °FLight rain. Mostly cloudy.7 mph87%30.24 "HgN/A
2:00 AM41 °FOvercast.7 mph87%30.24 "HgN/A
1:30 AM41 °FOvercast.7 mph87%30.27 "HgN/A
1:00 AM41 °FOvercast.8 mph87%30.27 "HgN/A
12:30 AM41 °FOvercast.7 mph87%30.27 "HgN/A
12:00 AM41 °FOvercast.8 mph87%30.27 "HgN/A
11:30 PM
Jan 27
41 °FOvercast.8 mph87%30.27 "HgN/A
11:00 PM41 °FOvercast.8 mph87%30.30 "HgN/A
10:30 PM41 °FOvercast.8 mph87%30.27 "HgN/A
10:00 PM41 °FOvercast.8 mph87%30.30 "HgN/A
9:30 PM39 °FOvercast.7 mph93%30.30 "HgN/A
9:00 PM39 °FOvercast.3 mph93%30.30 "HgN/A
8:30 PM39 °FOvercast.3 mph93%30.30 "HgN/A
8:00 PM39 °FMostly cloudy.2 mph87%30.30 "Hg5 mi
7:30 PM39 °FMostly cloudy.1 mph93%30.30 "Hg6 mi
7:00 PM39 °FMostly cloudy.2 mph87%30.30 "Hg5 mi
6:30 PM39 °FClear.7 mph93%30.30 "HgN/A
6:00 PM39 °FClear.6 mph93%30.30 "HgN/A
5:30 PM41 °FPartly sunny.3 mph87%30.30 "HgN/A
5:00 PM41 °FOvercast.7 mph87%30.30 "HgN/A
4:30 PM41 °FOvercast.10 mph87%30.30 "HgN/A
4:00 PM43 °FPartly sunny.9 mph81%30.30 "HgN/A
Weather by CustomWeather, © 2014

See weather overviewHow to use our weather pages